Datum;"Wasserstand in cm";"Stationsnummer: 5897700";"Stationsname: Wittstock";"Gew?sser: Glinze";"Fehlwerte: -777"
"31.03.2024 00:00";66
"31.03.2024 00:15";66
"31.03.2024 00:30";66
"31.03.2024 00:45";66
"31.03.2024 01:00";66
"31.03.2024 01:15";66
"31.03.2024 01:30";66
"31.03.2024 01:45";66
"31.03.2024 02:00";66
"31.03.2024 02:15";66
"31.03.2024 02:30";66
"31.03.2024 02:45";66
"31.03.2024 03:00";66
"31.03.2024 03:15";66
"31.03.2024 03:30";66
"31.03.2024 03:45";66
"31.03.2024 04:00";66
"31.03.2024 04:15";66
"31.03.2024 04:30";66
"31.03.2024 04:45";66
"31.03.2024 05:00";66
"31.03.2024 05:15";66
"31.03.2024 05:30";66
"31.03.2024 05:45";66
"31.03.2024 06:00";66
"31.03.2024 06:15";66
"31.03.2024 06:30";66
"31.03.2024 06:45";66
"31.03.2024 07:00";66
"31.03.2024 07:15";66
"31.03.2024 07:30";66
"31.03.2024 07:45";66
"31.03.2024 08:00";66
"31.03.2024 08:15";66
"31.03.2024 08:30";66
"31.03.2024 08:45";66
"31.03.2024 09:00";66
"31.03.2024 09:15";66
"31.03.2024 09:30";66
"31.03.2024 09:45";66
"31.03.2024 10:00";66
"31.03.2024 10:15";66
"31.03.2024 10:30";66
"31.03.2024 10:45";66
"31.03.2024 11:00";66
"31.03.2024 11:15";66
"31.03.2024 11:30";66
"31.03.2024 11:45";66
"31.03.2024 12:00";66
"31.03.2024 12:15";66
"31.03.2024 12:30";66
"31.03.2024 12:45";66
"31.03.2024 13:00";66
"31.03.2024 13:15";66
"31.03.2024 13:30";66
"31.03.2024 13:45";66
"31.03.2024 14:00";66
"31.03.2024 14:15";66
"31.03.2024 14:30";66
"31.03.2024 14:45";66
"31.03.2024 15:00";66
"31.03.2024 15:15";66
"31.03.2024 15:30";66
"31.03.2024 15:45";66
"31.03.2024 16:00";66
"31.03.2024 16:15";66
"31.03.2024 16:30";66
"31.03.2024 16:45";66
"31.03.2024 17:00";66
"31.03.2024 17:15";66
"31.03.2024 17:30";66
"31.03.2024 17:45";66
"31.03.2024 18:00";66
"31.03.2024 18:15";66
"31.03.2024 18:30";66
"31.03.2024 18:45";66
"31.03.2024 19:00";66
"31.03.2024 19:15";66
"31.03.2024 19:30";66
"31.03.2024 19:45";66
"31.03.2024 20:00";66
"31.03.2024 20:15";66
"31.03.2024 20:30";66
"31.03.2024 20:45";66
"31.03.2024 21:00";66
"31.03.2024 21:15";66
"31.03.2024 21:30";66
"31.03.2024 21:45";66
"31.03.2024 22:00";66
"31.03.2024 22:15";66
"31.03.2024 22:30";66
"31.03.2024 22:45";66
"31.03.2024 23:00";66
"31.03.2024 23:15";66
"31.03.2024 23:30";66
"31.03.2024 23:45";66
"01.04.2024 00:00";66
"01.04.2024 00:15";66
"01.04.2024 00:30";66
"01.04.2024 00:45";66
"01.04.2024 01:00";66
"01.04.2024 01:15";66
"01.04.2024 01:30";66
"01.04.2024 01:45";66
"01.04.2024 02:00";66
"01.04.2024 02:15";66
"01.04.2024 02:30";66
"01.04.2024 02:45";66
"01.04.2024 03:00";66
"01.04.2024 03:15";66
"01.04.2024 03:30";66
"01.04.2024 03:45";66
"01.04.2024 04:00";66
"01.04.2024 04:15";66
"01.04.2024 04:30";66
"01.04.2024 04:45";66
"01.04.2024 05:00";66
"01.04.2024 05:15";66
"01.04.2024 05:30";66
"01.04.2024 05:45";66
"01.04.2024 06:00";66
"01.04.2024 06:15";66
"01.04.2024 06:30";66
"01.04.2024 06:45";66
"01.04.2024 07:00";66
"01.04.2024 07:15";66
"01.04.2024 07:30";66
"01.04.2024 07:45";66
"01.04.2024 08:00";66
"01.04.2024 08:15";66
"01.04.2024 08:30";66
"01.04.2024 08:45";66
"01.04.2024 09:00";66
"01.04.2024 09:15";66
"01.04.2024 09:30";66
"01.04.2024 09:45";66
"01.04.2024 10:00";66
"01.04.2024 10:15";66
"01.04.2024 10:30";66
"01.04.2024 10:45";66
"01.04.2024 11:00";66
"01.04.2024 11:15";66
"01.04.2024 11:30";66
"01.04.2024 11:45";66
"01.04.2024 12:00";66
"01.04.2024 12:15";66
"01.04.2024 12:30";66
"01.04.2024 12:45";66
"01.04.2024 13:00";66
"01.04.2024 13:15";66
"01.04.2024 13:30";66
"01.04.2024 13:45";66
"01.04.2024 14:00";66
"01.04.2024 14:15";66
"01.04.2024 14:30";66
"01.04.2024 14:45";66
"01.04.2024 15:00";66
"01.04.2024 15:15";66
"01.04.2024 15:30";66
"01.04.2024 15:45";66
"01.04.2024 16:00";66
"01.04.2024 16:15";66
"01.04.2024 16:30";66
"01.04.2024 16:45";66
"01.04.2024 17:00";66
"01.04.2024 17:15";66
"01.04.2024 17:30";66
"01.04.2024 17:45";66
"01.04.2024 18:00";66
"01.04.2024 18:15";66
"01.04.2024 18:30";66
"01.04.2024 18:45";66
"01.04.2024 19:00";66
"01.04.2024 19:15";66
"01.04.2024 19:30";66
"01.04.2024 19:45";66
"01.04.2024 20:00";66
"01.04.2024 20:15";66
"01.04.2024 20:30";66
"01.04.2024 20:45";66
"01.04.2024 21:00";66
"01.04.2024 21:15";66
"01.04.2024 21:30";66
"01.04.2024 21:45";66
"01.04.2024 22:00";66
"01.04.2024 22:15";66
"01.04.2024 22:30";66
"01.04.2024 22:45";66
"01.04.2024 23:00";66
"01.04.2024 23:15";66
"01.04.2024 23:30";66
"01.04.2024 23:45";66
"02.04.2024 00:00";66
"02.04.2024 00:15";66
"02.04.2024 00:30";66
"02.04.2024 00:45";66
"02.04.2024 01:00";66
"02.04.2024 01:15";66
"02.04.2024 01:30";66
"02.04.2024 01:45";66
"02.04.2024 02:00";66
"02.04.2024 02:15";66
"02.04.2024 02:30";66
"02.04.2024 02:45";66
"02.04.2024 03:00";66
"02.04.2024 03:15";66
"02.04.2024 03:30";66
"02.04.2024 03:45";66
"02.04.2024 04:00";66
"02.04.2024 04:15";66
"02.04.2024 04:30";66
"02.04.2024 04:45";66
"02.04.2024 05:00";66
"02.04.2024 05:15";66
"02.04.2024 05:30";66
"02.04.2024 05:45";66
"02.04.2024 06:00";66
"02.04.2024 06:15";66
"02.04.2024 06:30";66
"02.04.2024 06:45";66
"02.04.2024 07:00";66
"02.04.2024 07:15";66
"02.04.2024 07:30";66
"02.04.2024 07:45";66
"02.04.2024 08:00";66
"02.04.2024 08:15";66
"02.04.2024 08:30";66
"02.04.2024 08:45";66
"02.04.2024 09:00";66
"02.04.2024 09:15";66
"02.04.2024 09:30";66
"02.04.2024 09:45";66
"02.04.2024 10:00";66
"02.04.2024 10:15";66
"02.04.2024 10:30";66
"02.04.2024 10:45";66
"02.04.2024 11:00";66
"02.04.2024 11:15";66
"02.04.2024 11:30";66
"02.04.2024 11:45";66
"02.04.2024 12:00";66
"02.04.2024 12:15";66
"02.04.2024 12:30";66
"02.04.2024 12:45";66
"02.04.2024 13:00";66
"02.04.2024 13:15";66
"02.04.2024 13:30";66
"02.04.2024 13:45";66
"02.04.2024 14:00";66
"02.04.2024 14:15";66
"02.04.2024 14:30";66
"02.04.2024 14:45";66
"02.04.2024 15:00";66
"02.04.2024 15:15";66
"02.04.2024 15:30";66
"02.04.2024 15:45";66
"02.04.2024 16:00";66
"02.04.2024 16:15";66
"02.04.2024 16:30";66
"02.04.2024 16:45";66
"02.04.2024 17:00";66
"02.04.2024 17:15";66
"02.04.2024 17:30";66
"02.04.2024 17:45";66
"02.04.2024 18:00";66
"02.04.2024 18:15";66
"02.04.2024 18:30";66
"02.04.2024 18:45";66
"02.04.2024 19:00";66
"02.04.2024 19:15";66
"02.04.2024 19:30";66
"02.04.2024 19:45";66
"02.04.2024 20:00";66
"02.04.2024 20:15";66
"02.04.2024 20:30";66
"02.04.2024 20:45";66
"02.04.2024 21:00";66
"02.04.2024 21:15";66
"02.04.2024 21:30";66
"02.04.2024 21:45";66
"02.04.2024 22:00";66
"02.04.2024 22:15";66
"02.04.2024 22:30";66
"02.04.2024 22:45";66
"02.04.2024 23:00";66
"02.04.2024 23:15";66
"02.04.2024 23:30";66
"02.04.2024 23:45";66
"03.04.2024 00:00";66
"03.04.2024 00:15";66
"03.04.2024 00:30";66
"03.04.2024 00:45";66
"03.04.2024 01:00";66
"03.04.2024 01:15";67
"03.04.2024 01:30";67
"03.04.2024 01:45";67
"03.04.2024 02:00";67
"03.04.2024 02:15";67
"03.04.2024 02:30";67
"03.04.2024 02:45";67
"03.04.2024 03:00";67
"03.04.2024 03:15";67
"03.04.2024 03:30";67
"03.04.2024 03:45";67
"03.04.2024 04:00";67
"03.04.2024 04:15";67
"03.04.2024 04:30";67
"03.04.2024 04:45";67
"03.04.2024 05:00";67
"03.04.2024 05:15";67
"03.04.2024 05:30";67
"03.04.2024 05:45";67
"03.04.2024 06:00";67
"03.04.2024 06:15";67
"03.04.2024 06:30";67
"03.04.2024 06:45";67
"03.04.2024 07:00";67
"03.04.2024 07:15";67
"03.04.2024 07:30";67
"03.04.2024 07:45";67
"03.04.2024 08:00";67
"03.04.2024 08:15";67
"03.04.2024 08:30";67
"03.04.2024 08:45";67
"03.04.2024 09:00";67
"03.04.2024 09:15";67
"03.04.2024 09:30";67
"03.04.2024 09:45";67
"03.04.2024 10:00";67
"03.04.2024 10:15";67
"03.04.2024 10:30";67
"03.04.2024 10:45";67
"03.04.2024 11:00";67
"03.04.2024 11:15";67
"03.04.2024 11:30";67
"03.04.2024 11:45";67
"03.04.2024 12:00";67
"03.04.2024 12:15";67
"03.04.2024 12:30";67
"03.04.2024 12:45";67
"03.04.2024 13:00";67
"03.04.2024 13:15";67
"03.04.2024 13:30";67
"03.04.2024 13:45";67
"03.04.2024 14:00";67
"03.04.2024 14:15";67
"03.04.2024 14:30";67
"03.04.2024 14:45";67
"03.04.2024 15:00";67
"03.04.2024 15:15";67
"03.04.2024 15:30";67
"03.04.2024 15:45";67
"03.04.2024 16:00";67
"03.04.2024 16:15";67
"03.04.2024 16:30";67
"03.04.2024 16:45";67
"03.04.2024 17:00";67
"03.04.2024 17:15";67
"03.04.2024 17:30";67
"03.04.2024 17:45";67
"03.04.2024 18:00";67
"03.04.2024 18:15";67
"03.04.2024 18:30";67
"03.04.2024 18:45";67
"03.04.2024 19:00";68
"03.04.2024 19:15";68
"03.04.2024 19:30";69
"03.04.2024 19:45";69
"03.04.2024 20:00";69
"03.04.2024 20:15";69
"03.04.2024 20:30";69
"03.04.2024 20:45";69
"03.04.2024 21:00";70
"03.04.2024 21:15";70
"03.04.2024 21:30";70
"03.04.2024 21:45";70
"03.04.2024 22:00";70
"03.04.2024 22:15";70
"03.04.2024 22:30";70
"03.04.2024 22:45";70
"03.04.2024 23:00";70
"03.04.2024 23:15";69
"03.04.2024 23:30";69
"03.04.2024 23:45";69
"04.04.2024 00:00";69
"04.04.2024 00:15";69
"04.04.2024 00:30";69
"04.04.2024 00:45";69
"04.04.2024 01:00";69
"04.04.2024 01:15";69
"04.04.2024 01:30";69
"04.04.2024 01:45";69
"04.04.2024 02:00";69
"04.04.2024 02:15";69
"04.04.2024 02:30";69
"04.04.2024 02:45";69
"04.04.2024 03:00";69
"04.04.2024 03:15";69
"04.04.2024 03:30";69
"04.04.2024 03:45";69
"04.04.2024 04:00";69
"04.04.2024 04:15";69
"04.04.2024 04:30";69
"04.04.2024 04:45";69
"04.04.2024 05:00";69
"04.04.2024 05:15";69
"04.04.2024 05:30";69
"04.04.2024 05:45";69
"04.04.2024 06:00";69
"04.04.2024 06:15";69
"04.04.2024 06:30";69
"04.04.2024 06:45";69
"04.04.2024 07:00";69
"04.04.2024 07:15";69
"04.04.2024 07:30";69
"04.04.2024 07:45";69
"04.04.2024 08:00";69
"04.04.2024 08:15";69
"04.04.2024 08:30";69
"04.04.2024 08:45";69
"04.04.2024 09:00";69
"04.04.2024 09:15";69
"04.04.2024 09:30";69
"04.04.2024 09:45";69
"04.04.2024 10:00";69
"04.04.2024 10:15";69
"04.04.2024 10:30";69
"04.04.2024 10:45";69
"04.04.2024 11:00";69
"04.04.2024 11:15";69
"04.04.2024 11:30";69
"04.04.2024 11:45";69
"04.04.2024 12:00";69
"04.04.2024 12:15";69
"04.04.2024 12:30";69
"04.04.2024 12:45";69
"04.04.2024 13:00";69
"04.04.2024 13:15";69
"04.04.2024 13:30";69
"04.04.2024 13:45";69
"04.04.2024 14:00";69
"04.04.2024 14:15";69
"04.04.2024 14:30";69
"04.04.2024 14:45";70
"04.04.2024 15:00";70
"04.04.2024 15:15";70
"04.04.2024 15:30";70
"04.04.2024 15:45";70
"04.04.2024 16:00";71
"04.04.2024 16:15";71
"04.04.2024 16:30";71
"04.04.2024 16:45";71
"04.04.2024 17:00";71
"04.04.2024 17:15";72
"04.04.2024 17:30";72
"04.04.2024 17:45";72
"04.04.2024 18:00";72
"04.04.2024 18:15";72
"04.04.2024 18:30";72
"04.04.2024 18:45";72
"04.04.2024 19:00";73
"04.04.2024 19:15";73
"04.04.2024 19:30";73
"04.04.2024 19:45";73
"04.04.2024 20:00";73
"04.04.2024 20:15";74
"04.04.2024 20:30";74
"04.04.2024 20:45";74
"04.04.2024 21:00";74
"04.04.2024 21:15";75
"04.04.2024 21:30";75
"04.04.2024 21:45";75
"04.04.2024 22:00";75
"04.04.2024 22:15";75
"04.04.2024 22:30";76
"04.04.2024 22:45";76
"04.04.2024 23:00";76
"04.04.2024 23:15";76
"04.04.2024 23:30";76
"04.04.2024 23:45";77
"05.04.2024 00:00";77
"05.04.2024 00:15";77
"05.04.2024 00:30";77
"05.04.2024 00:45";77
"05.04.2024 01:00";77
"05.04.2024 01:15";78
"05.04.2024 01:30";78
"05.04.2024 01:45";78
"05.04.2024 02:00";78
"05.04.2024 02:15";78
"05.04.2024 02:30";78
"05.04.2024 02:45";78
"05.04.2024 03:00";78
"05.04.2024 03:15";78
"05.04.2024 03:30";78
"05.04.2024 03:45";78
"05.04.2024 04:00";78
"05.04.2024 04:15";78
"05.04.2024 04:30";78
"05.04.2024 04:45";78
"05.04.2024 05:00";78
"05.04.2024 05:15";78
"05.04.2024 05:30";78
"05.04.2024 05:45";78
"05.04.2024 06:00";78
"05.04.2024 06:15";78
"05.04.2024 06:30";78
"05.04.2024 06:45";78
"05.04.2024 07:00";78
"05.04.2024 07:15";78
"05.04.2024 07:30";78
"05.04.2024 07:45";78
"05.04.2024 08:00";78
"05.04.2024 08:15";77
"05.04.2024 08:30";77
"05.04.2024 08:45";77
"05.04.2024 09:00";77
"05.04.2024 09:15";77
"05.04.2024 09:30";77
"05.04.2024 09:45";77
"05.04.2024 10:00";77
"05.04.2024 10:15";77
"05.04.2024 10:30";77
"05.04.2024 10:45";77
"05.04.2024 11:00";77
"05.04.2024 11:15";77
"05.04.2024 11:30";77
"05.04.2024 11:45";77
"05.04.2024 12:00";77
"05.04.2024 12:15";77
"05.04.2024 12:30";76
"05.04.2024 12:45";76
"05.04.2024 13:00";76
"05.04.2024 13:15";76
"05.04.2024 13:30";76
"05.04.2024 13:45";76
"05.04.2024 14:00";76
"05.04.2024 14:15";76
"05.04.2024 14:30";76
"05.04.2024 14:45";76
"05.04.2024 15:00";76
"05.04.2024 15:15";76
"05.04.2024 15:30";76
"05.04.2024 15:45";76
"05.04.2024 16:00";75
"05.04.2024 16:15";75
"05.04.2024 16:30";75
"05.04.2024 16:45";75
"05.04.2024 17:00";75
"05.04.2024 17:15";75
"05.04.2024 17:30";75
"05.04.2024 17:45";75
"05.04.2024 18:00";75
"05.04.2024 18:15";75
"05.04.2024 18:30";75
"05.04.2024 18:45";75
"05.04.2024 19:00";75
"05.04.2024 19:15";75
"05.04.2024 19:30";75
"05.04.2024 19:45";75
"05.04.2024 20:00";75
"05.04.2024 20:15";75
"05.04.2024 20:30";75
"05.04.2024 20:45";75
"05.04.2024 21:00";75
"05.04.2024 21:15";75
"05.04.2024 21:30";75
"05.04.2024 21:45";75
"05.04.2024 22:00";75
"05.04.2024 22:15";75
"05.04.2024 22:30";75
"05.04.2024 22:45";75
"05.04.2024 23:00";75
"05.04.2024 23:15";75
"05.04.2024 23:30";75
"05.04.2024 23:45";75
"06.04.2024 00:00";75
"06.04.2024 00:15";75
"06.04.2024 00:30";74
"06.04.2024 00:45";74
"06.04.2024 01:00";74
"06.04.2024 01:15";74
"06.04.2024 01:30";74
"06.04.2024 01:45";74
"06.04.2024 02:00";74
"06.04.2024 02:15";74
"06.04.2024 02:30";74
"06.04.2024 02:45";74
"06.04.2024 03:00";74
"06.04.2024 03:15";74
"06.04.2024 03:30";74
"06.04.2024 03:45";74
"06.04.2024 04:00";74
"06.04.2024 04:15";74
"06.04.2024 04:30";74
"06.04.2024 04:45";74
"06.04.2024 05:00";74
"06.04.2024 05:15";74
"06.04.2024 05:30";74
"06.04.2024 05:45";74
"06.04.2024 06:00";74
"06.04.2024 06:15";74
"06.04.2024 06:30";74
"06.04.2024 06:45";74
"06.04.2024 07:00";74
"06.04.2024 07:15";74
"06.04.2024 07:30";74
"06.04.2024 07:45";74
"06.04.2024 08:00";74
"06.04.2024 08:15";74
"06.04.2024 08:30";74
"06.04.2024 08:45";74
"06.04.2024 09:00";74
"06.04.2024 09:15";74
"06.04.2024 09:30";74
"06.04.2024 09:45";74
"06.04.2024 10:00";74
"06.04.2024 10:15";74
"06.04.2024 10:30";74
"06.04.2024 10:45";74
"06.04.2024 11:00";74
"06.04.2024 11:15";74
"06.04.2024 11:30";74
"06.04.2024 11:45";74
"06.04.2024 12:00";73
"06.04.2024 12:15";73
"06.04.2024 12:30";73
"06.04.2024 12:45";73
"06.04.2024 13:00";73
"06.04.2024 13:15";73
"06.04.2024 13:30";73
"06.04.2024 13:45";73
"06.04.2024 14:00";73
"06.04.2024 14:15";73
"06.04.2024 14:30";73
"06.04.2024 14:45";73
"06.04.2024 15:00";73
"06.04.2024 15:15";73
"06.04.2024 15:30";73
"06.04.2024 15:45";73
"06.04.2024 16:00";73
"06.04.2024 16:15";73
"06.04.2024 16:30";73
"06.04.2024 16:45";73
"06.04.2024 17:00";73
"06.04.2024 17:15";73
"06.04.2024 17:30";73
"06.04.2024 17:45";73
"06.04.2024 18:00";73
"06.04.2024 18:15";73
"06.04.2024 18:30";73
"06.04.2024 18:45";73
"06.04.2024 19:00";73
"06.04.2024 19:15";73
"06.04.2024 19:30";72
"06.04.2024 19:45";72
"06.04.2024 20:00";72
"06.04.2024 20:15";72
"06.04.2024 20:30";72
"06.04.2024 20:45";72
"06.04.2024 21:00";72
"06.04.2024 21:15";72
"06.04.2024 21:30";72
"06.04.2024 21:45";72
"06.04.2024 22:00";72
"06.04.2024 22:15";72
"06.04.2024 22:30";72
"06.04.2024 22:45";72
"06.04.2024 23:00";72
"06.04.2024 23:15";72
"06.04.2024 23:30";72
"06.04.2024 23:45";72
"07.04.2024 00:00";72
"07.04.2024 00:15";72
"07.04.2024 00:30";72
"07.04.2024 00:45";72
"07.04.2024 01:00";72
"07.04.2024 01:15";72
"07.04.2024 01:30";72
"07.04.2024 01:45";72
"07.04.2024 02:00";72
"07.04.2024 02:15";72
"07.04.2024 02:30";72
"07.04.2024 02:45";72
"07.04.2024 03:00";72
"07.04.2024 03:15";72
"07.04.2024 03:30";72
"07.04.2024 03:45";72
"07.04.2024 04:00";72
"07.04.2024 04:15";72
"07.04.2024 04:30";71
"07.04.2024 04:45";71
"07.04.2024 05:00";71
"07.04.2024 05:15";71
"07.04.2024 05:30";71
"07.04.2024 05:45";71
"07.04.2024 06:00";71
"07.04.2024 06:15";71
"07.04.2024 06:30";71
"07.04.2024 06:45";71
"07.04.2024 07:00";71
"07.04.2024 07:15";71
"07.04.2024 07:30";71
"07.04.2024 07:45";71
"07.04.2024 08:00";71
"07.04.2024 08:15";71
"07.04.2024 08:30";71
"07.04.2024 08:45";71
"07.04.2024 09:00";71
"07.04.2024 09:15";71
"07.04.2024 09:30";71
"07.04.2024 09:45";71
"07.04.2024 10:00";71
"07.04.2024 10:15";71
"07.04.2024 10:30";71
"07.04.2024 10:45";71
"07.04.2024 11:00";71
"07.04.2024 11:15";71
"07.04.2024 11:30";71
"07.04.2024 11:45";71
"07.04.2024 12:00";71
"07.04.2024 12:15";71
"07.04.2024 12:30";71
"07.04.2024 12:45";71
"07.04.2024 13:00";71
"07.04.2024 13:15";71
"07.04.2024 13:30";71
"07.04.2024 13:45";71
"07.04.2024 14:00";71
"07.04.2024 14:15";71
"07.04.2024 14:30";71
"07.04.2024 14:45";71
"07.04.2024 15:00";71
"07.04.2024 15:15";71
"07.04.2024 15:30";71
"07.04.2024 15:45";71
"07.04.2024 16:00";71
"07.04.2024 16:15";71
"07.04.2024 16:30";71
"07.04.2024 16:45";71
"07.04.2024 17:00";70
"07.04.2024 17:15";70
"07.04.2024 17:30";70
"07.04.2024 17:45";70
"07.04.2024 18:00";70
"07.04.2024 18:15";70
"07.04.2024 18:30";70
"07.04.2024 18:45";70
"07.04.2024 19:00";70
"07.04.2024 19:15";70
"07.04.2024 19:30";70
"07.04.2024 19:45";70
"07.04.2024 20:00";70
"07.04.2024 20:15";70
"07.04.2024 20:30";70
"07.04.2024 20:45";70
"07.04.2024 21:00";70
"07.04.2024 21:15";70
"07.04.2024 21:30";70
"07.04.2024 21:45";70
"07.04.2024 22:00";70
"07.04.2024 22:15";70
"07.04.2024 22:30";70
"07.04.2024 22:45";70
"07.04.2024 23:00";70
"07.04.2024 23:15";70
"07.04.2024 23:30";70
"07.04.2024 23:45";70
"08.04.2024 00:00";70
"08.04.2024 00:15";70
"08.04.2024 00:30";70
"08.04.2024 00:45";70
"08.04.2024 01:00";70
"08.04.2024 01:15";70
"08.04.2024 01:30";70
"08.04.2024 01:45";70
"08.04.2024 02:00";70
"08.04.2024 02:15";70
"08.04.2024 02:30";70
"08.04.2024 02:45";70
"08.04.2024 03:00";70
"08.04.2024 03:15";70
"08.04.2024 03:30";70
"08.04.2024 03:45";70
"08.04.2024 04:00";70
"08.04.2024 04:15";70
"08.04.2024 04:30";70
"08.04.2024 04:45";70
"08.04.2024 05:00";70
"08.04.2024 05:15";70
"08.04.2024 05:30";70
"08.04.2024 05:45";69
"08.04.2024 06:00";69
"08.04.2024 06:15";70
"08.04.2024 06:30";70
"08.04.2024 06:45";69
"08.04.2024 07:00";70
"08.04.2024 07:15";70
"08.04.2024 07:30";70
"08.04.2024 07:45";70
"08.04.2024 08:00";69
"08.04.2024 08:15";70
"08.04.2024 08:30";70
"08.04.2024 08:45";69
"08.04.2024 09:00";70
"08.04.2024 09:15";70
"08.04.2024 09:30";69
"08.04.2024 09:45";69
"08.04.2024 10:00";70
"08.04.2024 10:15";70
"08.04.2024 10:30";70
"08.04.2024 10:45";70
"08.04.2024 11:00";70
"08.04.2024 11:15";70
"08.04.2024 11:30";70
"08.04.2024 11:45";70
"08.04.2024 12:00";70
"08.04.2024 12:15";70
"08.04.2024 12:30";70
"08.04.2024 12:45";70
"08.04.2024 13:00";70
"08.04.2024 13:15";70
"08.04.2024 13:30";70
"08.04.2024 13:45";70
"08.04.2024 14:00";70
"08.04.2024 14:15";70
"08.04.2024 14:30";70
"08.04.2024 14:45";70
"08.04.2024 15:00";70
"08.04.2024 15:15";70
"08.04.2024 15:30";70
"08.04.2024 15:45";70
"08.04.2024 16:00";70
"08.04.2024 16:15";70
"08.04.2024 16:30";70
"08.04.2024 16:45";70
"08.04.2024 17:00";70
"08.04.2024 17:15";70
"08.04.2024 17:30";70
"08.04.2024 17:45";70
"08.04.2024 18:00";70
"08.04.2024 18:15";70
"08.04.2024 18:30";70
"08.04.2024 18:45";70
"08.04.2024 19:00";70
"08.04.2024 19:15";70
"08.04.2024 19:30";70
"08.04.2024 19:45";70
"08.04.2024 20:00";70
"08.04.2024 20:15";70
"08.04.2024 20:30";70
"08.04.2024 20:45";70
"08.04.2024 21:00";70
"08.04.2024 21:15";70
"08.04.2024 21:30";70
"08.04.2024 21:45";70
"08.04.2024 22:00";70
"08.04.2024 22:15";70
"08.04.2024 22:30";70
"08.04.2024 22:45";70
"08.04.2024 23:00";70
"08.04.2024 23:15";70
"08.04.2024 23:30";70
"08.04.2024 23:45";69
"09.04.2024 00:00";69
"09.04.2024 00:15";69
"09.04.2024 00:30";69
"09.04.2024 00:45";69
"09.04.2024 01:00";69
"09.04.2024 01:15";69
"09.04.2024 01:30";69
"09.04.2024 01:45";69
"09.04.2024 02:00";69
"09.04.2024 02:15";69
"09.04.2024 02:30";69
"09.04.2024 02:45";69
"09.04.2024 03:00";69
"09.04.2024 03:15";69
"09.04.2024 03:30";69
"09.04.2024 03:45";69
"09.04.2024 04:00";69
"09.04.2024 04:15";69
"09.04.2024 04:30";69
"09.04.2024 04:45";69
"09.04.2024 05:00";69
"09.04.2024 05:15";69
"09.04.2024 05:30";69
"09.04.2024 05:45";69
"09.04.2024 06:00";69
"09.04.2024 06:15";69
"09.04.2024 06:30";69
"09.04.2024 06:45";69
"09.04.2024 07:00";69
"09.04.2024 07:15";69
"09.04.2024 07:30";69
"09.04.2024 07:45";69
"09.04.2024 08:00";69
"09.04.2024 08:15";69
"09.04.2024 08:30";69
"09.04.2024 08:45";69
"09.04.2024 09:00";69
"09.04.2024 09:15";69
"09.04.2024 09:30";69
"09.04.2024 09:45";69
"09.04.2024 10:00";69
"09.04.2024 10:15";69
"09.04.2024 10:30";69
"09.04.2024 10:45";69
"09.04.2024 11:00";69
"09.04.2024 11:15";69
"09.04.2024 11:30";69
"09.04.2024 11:45";69
"09.04.2024 12:00";69
"09.04.2024 12:15";69
"09.04.2024 12:30";69
"09.04.2024 12:45";69
"09.04.2024 13:00";69
"09.04.2024 13:15";69
"09.04.2024 13:30";69
"09.04.2024 13:45";69
"09.04.2024 14:00";69
"09.04.2024 14:15";69
"09.04.2024 14:30";69
"09.04.2024 14:45";69
"09.04.2024 15:00";69
"09.04.2024 15:15";69
"09.04.2024 15:30";69
"09.04.2024 15:45";69
"09.04.2024 16:00";69
"09.04.2024 16:15";69
"09.04.2024 16:30";69
"09.04.2024 16:45";69
"09.04.2024 17:00";69
"09.04.2024 17:15";69
"09.04.2024 17:30";69
"09.04.2024 17:45";69
"09.04.2024 18:00";69
"09.04.2024 18:15";69
"09.04.2024 18:30";69
"09.04.2024 18:45";69
"09.04.2024 19:00";68
"09.04.2024 19:15";68
"09.04.2024 19:30";68
"09.04.2024 19:45";68
"09.04.2024 20:00";68
"09.04.2024 20:15";68
"09.04.2024 20:30";68
"09.04.2024 20:45";68
"09.04.2024 21:00";68
"09.04.2024 21:15";68
"09.04.2024 21:30";68
"09.04.2024 21:45";68
"09.04.2024 22:00";68
"09.04.2024 22:15";68
"09.04.2024 22:30";68
"09.04.2024 22:45";68
"09.04.2024 23:00";68
"09.04.2024 23:15";68
"09.04.2024 23:30";68
"09.04.2024 23:45";68
"10.04.2024 00:00";68
"10.04.2024 00:15";68
"10.04.2024 00:30";68
"10.04.2024 00:45";68
"10.04.2024 01:00";68
"10.04.2024 01:15";68
"10.04.2024 01:30";68
"10.04.2024 01:45";68
"10.04.2024 02:00";68
"10.04.2024 02:15";68
"10.04.2024 02:30";68
"10.04.2024 02:45";68
"10.04.2024 03:00";68
"10.04.2024 03:15";68
"10.04.2024 03:30";68
"10.04.2024 03:45";68
"10.04.2024 04:00";68
"10.04.2024 04:15";68
"10.04.2024 04:30";68
"10.04.2024 04:45";68
"10.04.2024 05:00";68
"10.04.2024 05:15";68
"10.04.2024 05:30";68
"10.04.2024 05:45";68
"10.04.2024 06:00";68
"10.04.2024 06:15";68
"10.04.2024 06:30";68
"10.04.2024 06:45";68
"10.04.2024 07:00";68
"10.04.2024 07:15";68
"10.04.2024 07:30";68
"10.04.2024 07:45";68
"10.04.2024 08:00";68
"10.04.2024 08:15";68
"10.04.2024 08:30";68
"10.04.2024 08:45";68
"10.04.2024 09:00";67
"10.04.2024 09:15";67
"10.04.2024 09:30";67
"10.04.2024 09:45";67
"10.04.2024 10:00";67
"10.04.2024 10:15";67
"10.04.2024 10:30";67
"10.04.2024 10:45";67
"10.04.2024 11:00";67
"10.04.2024 11:15";67
"10.04.2024 11:30";67
"10.04.2024 11:45";67
"10.04.2024 12:00";67
"10.04.2024 12:15";67
"10.04.2024 12:30";67
"10.04.2024 12:45";67
"10.04.2024 13:00";67
"10.04.2024 13:15";67
"10.04.2024 13:30";67
"10.04.2024 13:45";67
"10.04.2024 14:00";67
"10.04.2024 14:15";67
"10.04.2024 14:30";67
"10.04.2024 14:45";67
"10.04.2024 15:00";67
"10.04.2024 15:15";67
"10.04.2024 15:30";67
"10.04.2024 15:45";67
"10.04.2024 16:00";67
"10.04.2024 16:15";67
"10.04.2024 16:30";67
"10.04.2024 16:45";67
"10.04.2024 17:00";67
"10.04.2024 17:15";67
"10.04.2024 17:30";67
"10.04.2024 17:45";67
"10.04.2024 18:00";67
"10.04.2024 18:15";67
"10.04.2024 18:30";67
"10.04.2024 18:45";67
"10.04.2024 19:00";67
"10.04.2024 19:15";67
"10.04.2024 19:30";67
"10.04.2024 19:45";67
"10.04.2024 20:00";67
"10.04.2024 20:15";67
"10.04.2024 20:30";67
"10.04.2024 20:45";67
"10.04.2024 21:00";67
"10.04.2024 21:15";67
"10.04.2024 21:30";67
"10.04.2024 21:45";67
"10.04.2024 22:00";67
"10.04.2024 22:15";67
"10.04.2024 22:30";67
"10.04.2024 22:45";67
"10.04.2024 23:00";67
"10.04.2024 23:15";67
"10.04.2024 23:30";67
"10.04.2024 23:45";67
"11.04.2024 00:00";67
"11.04.2024 00:15";67
"11.04.2024 00:30";67
"11.04.2024 00:45";67
"11.04.2024 01:00";67
"11.04.2024 01:15";67
"11.04.2024 01:30";67
"11.04.2024 01:45";67
"11.04.2024 02:00";67
"11.04.2024 02:15";67
"11.04.2024 02:30";67
"11.04.2024 02:45";67
"11.04.2024 03:00";67
"11.04.2024 03:15";66
"11.04.2024 03:30";66
"11.04.2024 03:45";66
"11.04.2024 04:00";66
"11.04.2024 04:15";66
"11.04.2024 04:30";66
"11.04.2024 04:45";66
"11.04.2024 05:00";66
"11.04.2024 05:15";66
"11.04.2024 05:30";66
"11.04.2024 05:45";66
"11.04.2024 06:00";66
"11.04.2024 06:15";66
"11.04.2024 06:30";66
"11.04.2024 06:45";66
"11.04.2024 07:00";66